Location: Columbia
(38.9520°N, 92.3340°W)
Time: 16:48:26
(UTC-05:00)

Daily predictions for brighter satellites

Satellite Brightness Start Highest point End
(mag) Time Altitude Azimuth Time Altitude Azimuth Time Altitude Azimuth
Cosmos 2251 Rocket 3.6 20:12:31 10° NNW 20:17:53 67° ENE 20:23:11 10° SSE
ERS-2 2.7 20:17:12 10° SE 20:20:38 39° ENE 20:24:05 10° N
Cosmos 2154 Rocket 4.0 20:18:01 10° S 20:24:12 66° E 20:30:22 10° NNE
Cosmos 1455 2.8 20:21:58 10° SSE 20:25:30 36° E 20:29:04 10° NNE
Cosmos 1844 Rocket 2.7 20:20:50 10° NNW 20:26:32 87° ENE 20:32:12 10° SSE
Cosmos 2333 Rocket 2.2 20:21:04 10° S 20:26:39 62° ESE 20:32:13 10° NNE
SL-8 R/B 3.7 20:22:10 10° SW 20:26:53 65° SE 20:31:39 10° ENE
Meteor 2-21 4.4 20:22:53 10° S 20:28:59 74° E 20:35:10 10° N
YAOGAN 6 3.3 20:25:57 10° SE 20:29:13 35° ENE 20:32:34 10° N
Resurs 01 Rocket 2.4 20:26:42 10° SE 20:30:41 34° ENE 20:34:41 10° N
CZ-2D R/B 3.2 20:27:20 10° SSE 20:31:07 83° ENE 20:34:57 10° N
COSMOS 2428 3.2 20:26:04 10° SSW 20:31:46 70° WNW 20:37:30 10° NNE
OAO 2 Rocket 4.1 20:29:30 10° W 20:34:25 42° SSW 20:39:04 11° SE
Meteor 1-27 4.4 20:29:08 10° S 20:34:41 54° E 20:40:11 10° NNE
Cosmos 1892 2.7 20:31:37 10° N 20:35:30 64° E 20:39:19 10° SSE
Cosmos 1844 3.7 20:30:55 10° NNW 20:36:39 82° ENE 20:42:25 10° SSE
Cosmos 2219 Rocket 2.2 20:31:23 10° SSW 20:37:03 90° SE 20:42:44 10° NNE
NOSS 0 Rocket 4.0 20:31:36 10° S 20:37:34 56° ESE 20:43:37 10° NNE
Cosmos 2237 Rocket 2.4 20:35:21 10° S 20:40:40 46° ESE 20:46:01 10° NE
Genesis I 3.5 20:42:28 10° NNW 20:46:29 54° NE 20:49:41 15° SE
Cosmos 962 Rocket 4.4 20:41:29 10° S 20:47:33 70° E 20:53:41 10° NNE
Cosmos 220 Rocket 4.1 20:43:21 10° N 20:47:38 59° ENE 20:51:35 11° SSE
Cosmos 2341 Rocket 4.0 20:42:50 10° S 20:49:08 70° E 20:55:26 10° NNE
Cosmos 1666 Rocket 3.8 20:45:13 10° N 20:49:42 77° W 20:54:08 10° S
ATLAS 2AS CENTAUR R/B 3.0 20:42:19 10° NNW 20:50:13 72° NE 20:56:47 13° SE
Thor Agena Rocket 3.6 20:46:08 10° NNE 20:51:25 89° ESE 20:56:42 10° SSW
Aureole 2 3.9 20:48:31 10° SSW 20:51:33 76° ESE 20:54:29 10° NNE
Cosmos 2278 Rocket 2.6 20:46:17 10° N 20:51:46 46° ENE 20:56:10 15° SE
Cosmos 1295 Rocket 4.5 20:47:12 10° S 20:53:30 73° E 20:59:48 10° N
Cosmos 1151 Rocket 3.2 20:49:27 10° SSE 20:53:31 47° E 20:57:37 10° NNE
Cosmos 1340 4.5 20:52:00 10° SW 20:55:30 35° WNW 20:59:01 10° N
Cosmos 1933 Rocket 4.0 20:51:34 10° N 20:55:42 40° ENE 20:58:46 16° SE
BREEZE-M DEB (TANK) 4.5 20:51:34 10° W 20:56:12 70° NNW 21:15:48 10° ENE
Spot 2 Rocket 3.7 20:51:53 11° SE 20:56:38 51° ENE 21:01:34 10° N
Sich 1 3.7 20:52:57 10° NNW 20:57:08 55° W 21:01:17 10° S
Resurs 1-3 3.5 20:57:03 10° SSE 21:01:25 78° ENE 21:05:49 10° N
Cosmos 2366 rocket 4.4 20:56:39 10° SSE 21:02:24 42° E 21:08:15 10° NNE
USA 186 1.9 21:03:08 13° S 21:04:57 45° W 21:07:10 10° NNW
ASTRO E2 4.1 21:06:20 10° SW 21:09:21 20° SSE 21:09:50 20° SSE
SL-8 Rocket 4.0 21:04:35 10° S 21:10:49 67° E 21:17:03 10° NNE
Cosmos 1825 2.4 21:07:44 10° N 21:11:25 46° E 21:13:04 27° SE
NOSS 3-4 (A) 4.5 21:13:58 10° NNW 21:20:34 41° NE 21:24:48 23° ESE
Cosmos 1633 Rocket 4.3 21:16:40 10° NNW 21:20:44 40° W 21:24:48 10° SSW
ERS-1 Rocket 3.9 21:30:03 27° E 21:31:12 30° ENE 21:35:33 10° N
ARGOS 3.5 21:29:23 30° ESE 21:31:28 45° ENE 21:36:33 10° N
Cosmos 1515 Rocket 4.2 21:27:11 10° SSW 21:31:33 58° W 21:35:59 10° N
SL-16 R/B 2.3 21:26:13 10° S 21:31:37 48° ESE 21:37:02 10° NE
USA 267 4.1 21:27:08 10° ENE 21:35:38 19° SSE 21:37:58 10° S
Cosmos 407 Rocket 3.8 21:31:20 10° N 21:36:16 46° ENE 21:37:42 36° ESE
Cosmos 2344 3.9 21:31:59 10° S 21:39:02 41° ESE 21:46:21 10° NE
ATLAS CENTAUR R/B 3.9 21:36:37 10° W 21:39:26 20° NW 21:42:21 10° N
Meteor 2-10 Rocket 3.7 21:36:21 14° S 21:41:22 74° E 21:47:12 10° NNE
USA 81 4.3 21:36:18 10° N 21:41:25 49° E 21:42:46 40° SE
Cosmos 864 Rocket 4.4 21:35:40 10° S 21:41:47 84° E 21:47:56 10° N
Cosmos 2228 Rocket 4.2 21:37:48 10° SSW 21:41:58 44° W 21:46:12 10° N
Cosmos 1371 Rocket 4.2 21:41:10 10° SSW 21:46:27 72° WNW 21:51:50 10° NNE
H-2A R/B 2.3 21:45:53 41° ESE 21:46:53 47° ENE 21:51:39 10° N
BREEZE-M DEB (TANK) 2.6 21:43:53 10° WNW 21:46:35 51° W 21:46:35 51° W
Cosmos 1408 3.6 21:43:57 10° NNW 21:47:29 45° W 21:49:08 26° SSW
Cosmos 1869 3.9 21:47:35 17° SSW 21:50:33 57° W 21:54:32 10° N
CSL-04 DEB 4.5 21:50:13 56° SE 21:51:03 76° ENE 21:55:27 10° N
Terra 3.9 21:52:36 14° ENE 21:52:36 14° ENE 21:54:38 10° NNE
Cosmos 676 Rocket 4.4 21:52:40 10° N 21:57:42 44° ENE 21:58:14 43° E
Cosmos 1441 Rocket 3.6 22:06:14 55° N 22:06:14 55° N 22:09:13 10° N
Cosmos 2297 3.6 21:59:49 10° NNW 22:05:30 73° ENE 22:06:39 56° SE
Resurs 01 Rocket 3.9 22:03:55 10° SW 22:07:13 20° W 22:10:32 10° NW
Cosmos 2056 Rocket 4.1 22:02:31 10° SSW 22:07:51 59° WNW 22:13:11 10° N
Cosmos 1452 Rocket 3.7 22:09:18 50° ENE 22:09:18 50° ENE 22:13:45 10° NNE
Cosmos 2369 Rocket 4.0 22:06:03 10° N 22:09:47 17° NE 22:10:23 17° ENE
MetOp-A 4.2 22:11:37 48° S 22:13:06 75° WSW 22:18:28 10° NNW
SPOT 5 3.4 22:17:03 43° NE 22:17:03 43° NE 22:20:37 10° N
Lacrosse 5 3.9 22:13:14 10° NNW 22:16:37 17° NNE 22:18:20 15° NE
Cosmos 1000 Rocket 4.5 22:12:21 10° N 22:18:29 59° E 22:19:06 56° ESE
Cosmos 405 4.4 22:18:10 10° NNW 22:20:51 37° WNW 22:20:51 37° WNW
Cosmos 1727 Rocket 4.3 22:16:17 10° NNW 22:22:22 62° W 22:24:55 35° SSW
Cosmos 1821 Rocket 3.9 22:22:09 60° ESE 22:22:47 64° E 22:29:00 10° NNE
Cosmos 2237 Rocket 4.4 22:20:21 10° WSW 22:24:54 25° NW 22:29:31 10° N
Centaur D-1A AC-31 3.5 22:19:54 10° WSW 22:25:38 22° SSW 22:25:38 22° SSW
Cosmos 1140 Rocket 3.5 22:22:39 10° NNW 22:27:32 69° NE 22:27:32 69° NE
SL-08 RB Rocket 3.9 22:28:22 62° W 22:28:22 62° W 22:32:42 10° NNW
Cosmos 1190 Rocket 4.4 22:23:32 10° NNW 22:28:41 55° WSW 22:29:25 50° SW
Helios 1B rocket 4.1 22:28:40 10° NNE 22:30:32 26° NNE 22:30:32 26° NNE
ATLAS 2A CENTAUR R/B 4.1 22:17:49 10° WSW 22:33:08 39° S 22:33:56 39° S
ATLAS 5 CENTAUR R/B 3.9 22:29:55 10° N 22:34:38 24° NE 22:35:40 23° ENE
Cosmos 2278 Rocket 4.1 22:31:07 10° NW 22:35:29 23° W 22:38:03 17° SW
Cosmos 405 Rocket 4.2 22:37:07 36° WNW 22:37:07 36° WNW 22:40:18 10° N
SL-19 R/B 4.3 22:38:01 65° NE 22:38:01 65° NE 22:43:20 10° N
Cosmos 1954 Rocket 4.0 22:35:52 10° NNW 22:40:38 74° NW 22:40:38 74° NW
Cosmos 2123 Rocket 4.3 22:36:03 10° N 22:41:43 50° ENE 22:41:43 50° ENE
Helios 1A 4.4 22:54:51 36° NW 22:54:51 36° NW 22:57:37 10° NNW
Cosmos 1535 Rocket 4.4 22:54:27 86° SW 22:54:34 88° W 23:00:59 10° N
GEOS 3 Rocket 4.1 22:52:15 10° NNE 22:57:31 59° NW 22:58:49 46° W
Cosmos 1241 Rocket 4.5 22:56:12 10° NNW 23:02:08 74° NNE 23:02:08 74° NNE
CZ-2C R/B 4.4 23:05:00 28° NNE 23:05:00 28° NNE 23:07:33 10° N
ERS-1 Rocket 4.5 23:10:03 29° W 23:10:03 29° W 23:14:16 10° NW
NOSS 3-4 (A) 4.4 23:04:50 10° NW 23:11:36 45° WSW 23:12:16 44° SW
NOSS 3-4 (C) 4.4 23:04:56 10° NW 23:11:43 46° WSW 23:12:21 45° SW
Cosmos 1605 Rocket 4.3 23:14:20 60° NNE 23:14:20 60° NNE 23:19:33 10° N
CZ-4C R/B 2.8 23:15:43 50° N 23:15:43 50° N 23:20:28 10° NNE
USA 267 3.3 23:09:22 10° NE 23:15:55 76° NW 23:18:21 42° WSW
SL-16 R/B 4.3 23:11:28 10° WSW 23:15:58 24° NW 23:20:30 10° N
Cosmos 1943 Rocket 3.4 23:13:42 10° N 23:17:25 34° NNE 23:17:25 34° NNE
H-2A R/B 4.1 23:26:31 18° W 23:26:31 18° W 23:29:56 10° NW
Terra 3.5 23:31:29 32° NNW 23:31:29 32° NNW 23:34:06 10° NNW
USA 234 3.9 23:48:09 47° NE 23:48:15 47° NE 23:54:27 10° NW
Cosmos 2369 Rocket 3.4 23:48:43 10° NNW 23:52:10 38° NW 23:52:10 38° NW
